Hourly Data Report for October 03, 2017

All times are specified in Local Standard Time (LST). Add 1 hour to adjust for Daylight Saving Time where and when it is observed.

THOMPSON A
MANITOBA

55°48'17.000" N
97°51'45.000" W
224.00 m
5062921
71079
YTH

Download Data

Hourly Data (October 2017)
Hourly Data Report for October 3, 2017
Temp Definition
°C
Dew Point Temp Definition
°C
Rel Hum Definition
%
Wind Dir Definition
10's deg

Wind Spd Definition
km/h
Visibility Definition
km
Stn Press Definition
kPa
Hmdx Definition


Wind Chill Definition


Weather Definition


TIME
00:00 Legend Double Dagger 1.9 0.9 93 2 26 8.1 98.82     Rain
01:00 Legend Double Dagger 1.6 0.6 93 1 22 16.1 98.88     Rain
02:00 Legend Double Dagger 1.5 0.6 93 2 15 8.1 99.00     Rain
03:00
04:00 Legend Double Dagger 0.1 -0.6 95 1 12 24.1 99.15     LegendNANA
05:00 Legend Double Dagger -1.0 -1.6 96 1 7 24.1 99.26   -4 LegendNANA
06:00 Legend Double Dagger -0.9 -1.6 95 1 11 24.1 99.37   -5 Mainly Clear
07:00 Legend Double Dagger -1.4 -2.1 95 1 9 24.1 99.40   -5 LegendNANA
08:00 Legend Double Dagger 0.1 -0.7 94 35 9 24.1 99.53     LegendNANA
09:00 Legend Double Dagger 1.8 0.4 91 36 9 24.1 99.54     Clear
10:00 Legend Double Dagger 3.4 1.2 86 36 15 24.1 99.53     LegendNANA
11:00 Legend Double Dagger 5.4 1.2 74 1 12 24.1 99.49     LegendNANA
12:00 Legend Double Dagger 5.9 0.0 66 3 6 24.1 99.49     Mainly Clear
13:00 Legend Double Dagger 6.8 -0.5 60 30 4 24.1 99.45     LegendNANA
14:00 Legend Double Dagger 7.9 -0.3 56 30 10 24.1 99.41     LegendNANA
15:00 Legend Double Dagger 8.3 -0.3 55 21 5 24.1 99.39     Mainly Clear
16:00 Legend Double Dagger 8.4 -0.1 55 18 4 24.1 99.37     LegendNANA
17:00 Legend Double Dagger 8.3 0.1 56 20 8 24.1 99.35     LegendNANA
18:00 Legend Double Dagger 6.1 0.4 67 20 8 24.1 99.31     Mostly Cloudy
19:00 Legend Double Dagger 4.7 0.5 74 19 8 24.1 99.26     LegendNANA
20:00 Legend Double Dagger 3.5 0.2 79 18 8 24.1 99.17     LegendNANA
21:00 Legend Double Dagger 4.3 -0.2 73 20 10 24.1 99.07     Mainly Clear
22:00 Legend Double Dagger 4.2 0.2 75 23 11 24.1 98.99     LegendNANA
23:00 Legend Double Dagger 3.8 0.0 76 21 13 24.1 98.89     LegendNANA

Notes on Data Quality.

Legend

  • E = Estimated
  • M = Missing
  • NA = Not Available
  • ‡ = Partner data that is not subject to review by the National Climate Archives
Date modified: